Tracking 30995 objects as of 5-Jul-2025
HD Live streaming from Space Station
objects crossing your sky now

ATLAS D DEB

Track ATLAS D DEB now!
10-day predictions


NORAD ID: 2327
Int'l Code: 1966-063B
Perigee: 862.8 km
Apogee: 906.2 km
Inclination: 144.2 °
Period: 102.5 minutes
Semi major axis: 7255 km
RCS: 0.284 m2 (medium)
Launch date: July 14, 1966
Source: United States (US)
Launch site: AIR FORCE WESTERN TEST RANGE (AFWTR)

Note: This is SATELLITE DEBRIS
Your satellite tracking list
COSMOS 1637
Track 1 satellite(s)




NASA's NSSDC Master Catalog

Two Line Element Set (TLE):
1  2327U 66063B   25186.19391193  .00001261  00000-0  60746-3 0  9999
2  2327 144.1954 295.1306 0029942 156.9269 203.2768 14.04754660989724
Source of the keplerian elements: AFSPC